Погода в Си-Фур-ле-Плаж

Франция     43°05′44″N   5°49′56″E
темп.,
°C
ветер,
м/с
пор.,
м/с
влажн.,
%
обл.,
%
осадки,
мм/ч
давл.,
гПа
погр.,
м
5 марта, пт
пт501:00+12зсз55800 0.0 1019642
04:00+12зсз56810 0.0 1018634
07:00+12зсз678226 0.1 1017583
10:00+12зсз678468 0.1 1017561
13:00+12з678250 0.1 1017481
16:00+13з567649 0.0 1016323
19:00+14зсз237667 0.0 101745
22:00+14всв3476100 0.0 101899
6 марта, сб
сб601:00+13в7880100 0.0 1020354
04:00+13всв687724 0.0 1020443
07:00+12всв568224 0.0 1021571
10:00+13всв477652 0.1 1023574
13:00+13вюв787926 0.1 1024728
16:00+13вюв79782 0.0 1024887
19:00+13вюв9107732 0.1 1024949
22:00+13в9107463 0.0 1025968
7 марта, вс
вс701:00+13в9117273 0.0 1025958
04:00+12в10117299 0.0 1024882
07:00+12в9117382 0.0 1023813
10:00+12в101172100 0.0 1023778
13:00+12в91073100 0.0 1022597
16:00+12в8976100 0.0 1020457
19:00+12в787495 0.0 1019410
22:00+12в5566100 0.0 1019376
8 марта, пн
пн801:00+12св236051 0.0 1018269
04:00+12с22620 0.0 1016275
07:00+11с22650 0.0 1016242
10:00+12сз016716 0.0 1015320
13:00+12юв22718 0.0 1016332
16:00+12ююв22720 0.0 1014306
19:00+12ю33730 0.0 1015285
22:00+12ююв33720 0.0 1016384
9 марта, вт
вт901:00+12юв22700 0.0 1016392
04:00+12св22700 0.0 1016266
07:00+12сз22670 0.0 1016276
10:00+12зсз44730 0.0 1018277
13:00+11зсз55700 0.0 1019254
16:00+12зсз34620 0.0 1018309
19:00+13ссз22640 0.0 1019203
22:00+13вюв44660 0.0 1021248